THY763 OMDB-LTFM

Flight info

Callsign THY763
Flight time 0h 58m
Altitude 36000
Route RIDAP M557 TUMAK L602 GADSI M860 RESAK/N0482F380 M860 NINVA UM860 NAREN UG81 UMLEN UL718 ETESU UT888 SIV UA4 ERSEN
Aircraft B77W/H-SDE1E2E3FGHIJ2J3J4J5M1RWXY/LB1D1

Departure

Time 2026-05-07 16:42
Airport Dubai International Airport (OMDB)

Arrival

Time 2026-05-07 17:40
Airport İstanbul Airport (LTFM)
Time Latitude Longitude Altitude Speed Heading
2026-05-07 16:21 25.24959 55.36147 24 ft 0 kts 212°
2026-05-07 16:30 25.24967 55.36152 25 ft 2 kts 209°
2026-05-07 16:30 25.24980 55.36161 25 ft 2 kts 212°
2026-05-07 16:30 25.24994 55.36171 27 ft 2 kts 211°
2026-05-07 16:31 25.25008 55.36180 27 ft 2 kts 211°
2026-05-07 16:31 25.25022 55.36190 27 ft 2 kts 189°
2026-05-07 16:31 25.25038 55.36187 28 ft 2 kts 152°
2026-05-07 16:31 25.25052 55.36177 25 ft 2 kts 137°
2026-05-07 16:32 25.25061 55.36167 26 ft 1 kts 127°
2026-05-07 16:32 25.25063 55.36164 27 ft 0 kts 125°
2026-05-07 16:34 25.25055 55.36176 25 ft 9 kts 124°
2026-05-07 16:34 25.24994 55.36291 30 ft 22 kts 120°
2026-05-07 16:34 25.24913 55.36434 27 ft 22 kts 122°
2026-05-07 16:34 25.24832 55.36582 29 ft 22 kts 118°
2026-05-07 16:35 25.24780 55.36742 31 ft 22 kts 102°
2026-05-07 16:35 25.24723 55.36900 33 ft 22 kts 119°
2026-05-07 16:35 25.24642 55.37046 35 ft 24 kts 122°
2026-05-07 16:35 25.24537 55.37229 37 ft 30 kts 121°
2026-05-07 16:36 25.24433 55.37423 40 ft 30 kts 121°
2026-05-07 16:36 25.24311 55.37644 43 ft 37 kts 122°
2026-05-07 16:36 25.24182 55.37871 46 ft 33 kts 121°
2026-05-07 16:36 25.24069 55.38075 49 ft 30 kts 121°
2026-05-07 16:37 25.23960 55.38272 48 ft 30 kts 122°
2026-05-07 16:37 25.23870 55.38455 50 ft 21 kts 95°
2026-05-07 16:37 25.23872 55.38609 50 ft 22 kts 115°
2026-05-07 16:37 25.23782 55.38780 52 ft 26 kts 121°
2026-05-07 16:38 25.23687 55.38953 53 ft 26 kts 121°
2026-05-07 16:38 25.23593 55.39126 55 ft 26 kts 121°
2026-05-07 16:38 25.23510 55.39293 57 ft 18 kts 97°
2026-05-07 16:38 25.23516 55.39319 58 ft 0 kts 59°
2026-05-07 16:39 25.23523 55.39333 54 ft 5 kts 64°
2026-05-07 16:39 25.23523 55.39335 54 ft 1 kts 72°
2026-05-07 16:39 25.23503 55.39381 55 ft 13 kts 132°
2026-05-07 16:39 25.23435 55.39443 58 ft 13 kts 140°
2026-05-07 16:40 25.23427 55.39520 57 ft 13 kts 37°
2026-05-07 16:40 25.23466 55.39544 45 ft 0 kts 29°
2026-05-07 16:41 25.23467 55.39544 45 ft 1 kts 29°
2026-05-07 16:41 25.23523 55.39557 47 ft 12 kts 337°
2026-05-07 16:41 25.23626 55.39418 48 ft 48 kts 302°
2026-05-07 16:41 25.23961 55.38816 35 ft 138 kts 301°
2026-05-07 16:42 25.24613 55.37638 64 ft 215 kts 302°
2026-05-07 16:42 25.25445 55.36176 674 ft 225 kts 303°
2026-05-07 16:42 25.26250 55.34779 1451 ft 217 kts 300°
2026-05-07 16:42 25.27012 55.33509 2081 ft 227 kts 302°
2026-05-07 16:43 25.27621 55.32531 2273 ft 239 kts 303°
2026-05-07 16:43 25.28589 55.30988 2740 ft 249 kts 303°
2026-05-07 16:43 25.29593 55.29389 3209 ft 261 kts 304°
2026-05-07 16:43 25.30661 55.27716 3718 ft 269 kts 304°
2026-05-07 16:44 25.31753 55.26009 4333 ft 275 kts 304°
2026-05-07 16:44 25.32867 55.24261 4908 ft 281 kts 304°
2026-05-07 16:44 25.33995 55.22490 5597 ft 281 kts 305°
2026-05-07 16:44 25.35118 55.20719 6305 ft 281 kts 303°
2026-05-07 16:45 25.35850 55.18725 6786 ft 285 kts 274°
2026-05-07 16:45 25.35813 55.16533 7278 ft 288 kts 267°
2026-05-07 16:45 25.35714 55.14300 7900 ft 291 kts 268°
2026-05-07 16:45 25.35625 55.12068 8592 ft 291 kts 268°
2026-05-07 16:46 25.35537 55.09819 9258 ft 294 kts 268°
2026-05-07 16:46 25.35451 55.07557 9888 ft 296 kts 268°
2026-05-07 16:46 25.35365 55.05265 10410 ft 303 kts 268°
2026-05-07 16:46 25.35276 55.02883 10560 ft 325 kts 268°
2026-05-07 16:47 25.35181 55.00307 10734 ft 345 kts 267°
2026-05-07 16:47 25.35081 54.97580 10889 ft 366 kts 267°
2026-05-07 16:47 25.34976 54.94704 11205 ft 380 kts 267°
2026-05-07 16:47 25.34875 54.91745 11683 ft 385 kts 269°
2026-05-07 16:48 25.35210 54.88795 12019 ft 391 kts 286°
2026-05-07 16:48 25.36117 54.85924 12540 ft 397 kts 289°
2026-05-07 16:48 25.37019 54.83071 13217 ft 400 kts 288°
2026-05-07 16:48 25.41866 54.66317 16513 ft 418 kts 287°
2026-05-07 16:49 25.49254 54.41151 20858 ft 438 kts 286°
2026-05-07 16:49 25.56766 54.15443 24693 ft 450 kts 287°
2026-05-07 16:49 25.64492 53.88685 27731 ft 462 kts 285°
2026-05-07 16:49 25.72220 53.61214 30260 ft 469 kts 284°
2026-05-07 16:50 25.79983 53.33603 31775 ft 475 kts 284°
2026-05-07 16:50 25.89132 53.05706 31926 ft 484 kts 292°
2026-05-07 16:50 26.00265 52.78953 31766 ft 467 kts 290°
2026-05-07 16:50 26.11629 52.53376 31729 ft 454 kts 292°
2026-05-07 16:51 26.22968 52.28224 31890 ft 458 kts 292°
2026-05-07 16:51 26.34134 52.02302 31984 ft 470 kts 291°
2026-05-07 16:51 26.43882 51.75271 31842 ft 469 kts 286°
2026-05-07 16:52 26.61621 51.22082 31777 ft 451 kts 285°
2026-05-07 16:52 26.70303 50.95669 31901 ft 456 kts 285°
2026-05-07 16:52 26.78986 50.68628 31975 ft 469 kts 288°
2026-05-07 16:52 26.95254 50.44785 31945 ft 478 kts 306°
2026-05-07 16:53 27.13438 50.23216 31780 ft 468 kts 306°
2026-05-07 16:53 27.34481 50.04887 31929 ft 478 kts 316°
2026-05-07 16:53 27.55499 49.86362 31950 ft 484 kts 315°
2026-05-07 16:54 27.98495 49.48174 31812 ft 488 kts 315°
2026-05-07 16:54 28.19434 49.29159 31784 ft 476 kts 314°
2026-05-07 16:54 28.39742 49.10488 31928 ft 476 kts 314°
2026-05-07 16:54 28.62398 48.93229 31964 ft 489 kts 319°
2026-05-07 16:55 28.84948 48.75792 31919 ft 492 kts 319°
2026-05-07 16:55 29.30612 48.40602 32607 ft 501 kts 318°
2026-05-07 16:55 29.53938 48.23382 34321 ft 504 kts 322°
2026-05-07 16:56 29.78332 48.07683 34830 ft 501 kts 321°
2026-05-07 16:56 30.02332 47.91363 34744 ft 486 kts 314°
2026-05-07 16:56 30.36071 47.46566 35914 ft 469 kts 301°
2026-05-07 16:57 30.53004 47.23667 36032 ft 478 kts 301°
2026-05-07 16:57 30.73927 47.02467 36018 ft 507 kts 313°
2026-05-07 16:57 30.95465 46.82469 35830 ft 487 kts 310°
2026-05-07 16:57 31.16261 46.62801 35809 ft 472 kts 310°
2026-05-07 16:58 31.36623 46.43449 36008 ft 474 kts 310°
2026-05-07 16:58 31.57375 46.23621 36127 ft 487 kts 310°
2026-05-07 16:58 31.78612 46.03193 36174 ft 499 kts 309°
2026-05-07 16:58 31.99695 45.82154 36987 ft 495 kts 309°
2026-05-07 16:59 32.20747 45.61080 37463 ft 497 kts 308°
2026-05-07 16:59 32.41827 45.39843 37657 ft 502 kts 308°
2026-05-07 16:59 32.63489 45.19089 37723 ft 519 kts 316°
2026-05-07 16:59 32.86984 45.01244 37693 ft 481 kts 315°
2026-05-07 17:00 33.09132 44.83395 38068 ft 483 kts 315°
2026-05-07 17:00 33.35001 44.70463 38223 ft 579 kts 356°
2026-05-07 17:00 33.66750 44.72454 38137 ft 556 kts 349°
2026-05-07 17:00 33.97809 44.70848 37982 ft 560 kts 352°
2026-05-07 17:01 34.58839 44.66404 37618 ft 503 kts 328°
2026-05-07 17:01 34.83864 44.53159 38128 ft 506 kts 330°
2026-05-07 17:01 35.10245 44.40546 38175 ft 511 kts 330°
2026-05-07 17:02 35.63367 44.13573 38094 ft 518 kts 329°
2026-05-07 17:02 36.16565 43.85847 38081 ft 519 kts 329°
2026-05-07 17:03 36.69953 43.58037 38049 ft 519 kts 330°
2026-05-07 17:03 37.22177 43.28954 38122 ft 516 kts 329°
2026-05-07 17:04 37.41976 43.08119 37979 ft 428 kts 284°
2026-05-07 17:04 37.52552 42.80213 38244 ft 452 kts 293°
2026-05-07 17:04 37.76685 42.22945 38186 ft 470 kts 292°
2026-05-07 17:05 38.05886 41.66808 38199 ft 494 kts 308°
2026-05-07 17:05 38.42179 41.14195 38115 ft 493 kts 307°
2026-05-07 17:06 38.64509 40.55583 38258 ft 461 kts 269°
2026-05-07 17:06 38.66449 40.22884 38159 ft 473 kts 281°
2026-05-07 17:06 38.81270 39.94932 38292 ft 480 kts 304°
2026-05-07 17:07 38.96695 39.66671 38161 ft 485 kts 303°
2026-05-07 17:07 39.12248 39.38221 38122 ft 486 kts 301°
2026-05-07 17:07 39.21909 39.06150 38112 ft 482 kts 288°
2026-05-07 17:07 39.30816 38.73324 38179 ft 484 kts 289°
2026-05-07 17:08 39.48488 38.07265 38181 ft 486 kts 289°
2026-05-07 17:08 39.65784 37.40887 38184 ft 485 kts 289°
2026-05-07 17:09 39.74085 37.08505 37486 ft 485 kts 288°
2026-05-07 17:09 39.81044 36.75966 38239 ft 468 kts 280°
2026-05-07 17:09 39.89859 36.09397 38247 ft 472 kts 281°
2026-05-07 17:10 39.98562 35.41218 38164 ft 479 kts 282°
2026-05-07 17:10 40.06639 34.72303 38121 ft 479 kts 281°
2026-05-07 17:11 40.14247 34.03569 38094 ft 477 kts 281°
2026-05-07 17:11 40.21701 33.35405 38163 ft 475 kts 281°
2026-05-07 17:12 40.25964 33.02131 38074 ft 442 kts 292°
2026-05-07 17:12 40.34094 32.72489 38234 ft 444 kts 291°
2026-05-07 17:12 40.50288 32.09688 38216 ft 458 kts 294°
2026-05-07 17:13 40.67468 31.45742 38111 ft 462 kts 290°
2026-05-07 17:13 40.75461 31.13090 38044 ft 448 kts 290°
2026-05-07 17:14 40.76396 31.09210 37632 ft 441 kts 290°
2026-05-07 17:14 40.77305 31.05433 37136 ft 436 kts 290°
2026-05-07 17:14 40.78214 31.01664 36491 ft 437 kts 291°
2026-05-07 17:14 40.79136 30.97837 35850 ft 437 kts 291°
2026-05-07 17:15 40.80058 30.94003 35121 ft 439 kts 291°
2026-05-07 17:15 40.80981 30.90160 34424 ft 439 kts 291°
2026-05-07 17:15 40.81902 30.86320 33645 ft 439 kts 291°
2026-05-07 17:15 40.82823 30.82464 32867 ft 439 kts 291°
2026-05-07 17:16 40.83741 30.78620 32098 ft 439 kts 291°
2026-05-07 17:16 40.84656 30.74780 31333 ft 439 kts 291°
2026-05-07 17:16 40.85572 30.70937 30624 ft 439 kts 291°
2026-05-07 17:16 40.86482 30.67086 29854 ft 439 kts 290°
2026-05-07 17:17 40.87143 30.63137 29021 ft 443 kts 282°
2026-05-07 17:17 40.87469 30.59079 28235 ft 444 kts 279°
2026-05-07 17:17 40.87754 30.55014 27558 ft 441 kts 280°
2026-05-07 17:17 40.88090 30.51044 27304 ft 428 kts 281°
2026-05-07 17:18 40.88584 30.47312 27099 ft 407 kts 292°
2026-05-07 17:18 40.89722 30.44003 27106 ft 385 kts 305°
2026-05-07 17:18 40.91327 30.41240 27119 ft 380 kts 314°
2026-05-07 17:18 40.93120 30.38654 27106 ft 382 kts 314°
2026-05-07 17:19 40.94911 30.36072 27099 ft 379 kts 314°
2026-05-07 17:19 40.96673 30.33487 27099 ft 377 kts 313°
2026-05-07 17:19 40.98396 30.30931 27100 ft 374 kts 313°
2026-05-07 17:19 40.99845 30.28077 26921 ft 382 kts 296°
2026-05-07 17:20 41.00584 30.24627 26325 ft 397 kts 282°
2026-05-07 17:20 41.00711 30.20941 25727 ft 405 kts 271°
2026-05-07 17:20 41.00479 30.17219 25157 ft 406 kts 269°
2026-05-07 17:20 41.00180 30.13496 24577 ft 407 kts 268°
2026-05-07 17:21 40.99862 30.09763 24002 ft 408 kts 268°
2026-05-07 17:21 40.99546 30.06009 23391 ft 409 kts 268°
2026-05-07 17:21 40.99240 30.02261 22637 ft 411 kts 268°
2026-05-07 17:21 40.98940 29.98483 21874 ft 414 kts 268°
2026-05-07 17:22 40.98644 29.94674 21120 ft 417 kts 268°
2026-05-07 17:22 40.98350 29.90839 20387 ft 419 kts 267°
2026-05-07 17:22 40.98055 29.86995 19665 ft 421 kts 267°
2026-05-07 17:22 40.97760 29.83143 18948 ft 416 kts 266°
2026-05-07 17:23 40.97472 29.79423 18183 ft 397 kts 266°
2026-05-07 17:23 40.97194 29.75859 17380 ft 379 kts 266°
2026-05-07 17:23 40.96931 29.72495 16600 ft 365 kts 266°
2026-05-07 17:23 40.96675 29.69217 15809 ft 352 kts 266°
2026-05-07 17:24 40.96426 29.66036 15083 ft 342 kts 266°
2026-05-07 17:24 40.96185 29.62949 14362 ft 333 kts 266°
2026-05-07 17:24 40.95949 29.59938 13614 ft 325 kts 266°
2026-05-07 17:24 40.95719 29.57011 12840 ft 318 kts 266°
2026-05-07 17:25 40.95491 29.54133 12083 ft 311 kts 266°
2026-05-07 17:25 40.95269 29.51341 11460 ft 301 kts 265°
2026-05-07 17:25 40.95055 29.48676 11227 ft 289 kts 266°
2026-05-07 17:25 40.94842 29.45978 11091 ft 297 kts 265°
2026-05-07 17:26 40.94626 29.43278 11007 ft 292 kts 265°
2026-05-07 17:26 40.94415 29.40651 10993 ft 284 kts 265°
2026-05-07 17:26 40.94208 29.38096 10996 ft 282 kts 265°
2026-05-07 17:26 40.93999 29.35501 10928 ft 287 kts 265°
2026-05-07 17:27 40.93784 29.32826 10514 ft 296 kts 265°
2026-05-07 17:27 40.93635 29.30992 10201 ft 299 kts 265°
2026-05-07 17:27 40.93414 29.28275 9721 ft 301 kts 265°
2026-05-07 17:27 40.93192 29.25575 9164 ft 290 kts 265°
2026-05-07 17:28 40.92979 29.22983 8641 ft 278 kts 265°
2026-05-07 17:28 40.92773 29.20491 8115 ft 268 kts 265°
2026-05-07 17:28 40.92576 29.18095 7599 ft 258 kts 265°
2026-05-07 17:28 40.92385 29.15782 7090 ft 250 kts 265°
2026-05-07 17:29 40.92203 29.13590 6624 ft 243 kts 265°
2026-05-07 17:29 40.92018 29.11350 6121 ft 242 kts 265°
2026-05-07 17:29 40.91833 29.09109 5646 ft 247 kts 265°
2026-05-07 17:29 40.91644 29.06833 5168 ft 249 kts 264°
2026-05-07 17:30 40.91455 29.04585 4646 ft 244 kts 264°
2026-05-07 17:30 40.91270 29.02378 4192 ft 237 kts 265°
2026-05-07 17:30 40.91151 29.00287 4005 ft 219 kts 275°
2026-05-07 17:30 40.91357 28.98314 4039 ft 221 kts 278°
2026-05-07 17:31 40.91555 28.96311 4009 ft 219 kts 277°
2026-05-07 17:31 40.91732 28.94331 3995 ft 214 kts 277°
2026-05-07 17:31 40.91903 28.92382 4005 ft 214 kts 277°
2026-05-07 17:31 40.92075 28.90420 4019 ft 215 kts 277°
2026-05-07 17:32 40.92248 28.88441 4016 ft 218 kts 276°
2026-05-07 17:32 40.92420 28.86474 4020 ft 219 kts 277°
2026-05-07 17:32 40.92597 28.84436 4017 ft 220 kts 277°
2026-05-07 17:32 40.92770 28.82447 4014 ft 221 kts 276°
2026-05-07 17:33 40.93019 28.80467 3978 ft 216 kts 292°
2026-05-07 17:33 40.93919 28.78937 4024 ft 214 kts 320°
2026-05-07 17:33 40.95189 28.77827 4025 ft 222 kts 326°
2026-05-07 17:33 40.96528 28.76775 4020 ft 224 kts 328°
2026-05-07 17:34 40.97983 28.76129 3993 ft 222 kts 356°
2026-05-07 17:34 40.99535 28.76175 4029 ft 227 kts 356°
2026-05-07 17:34 41.01109 28.76161 4062 ft 223 kts 355°
2026-05-07 17:34 41.02636 28.76132 4015 ft 216 kts 355°
2026-05-07 17:35 41.04107 28.76104 4009 ft 209 kts 355°
2026-05-07 17:35 41.05529 28.76076 4014 ft 199 kts 355°
2026-05-07 17:35 41.06896 28.76050 4004 ft 194 kts 355°
2026-05-07 17:35 41.08219 28.76022 3802 ft 189 kts 354°
2026-05-07 17:36 41.09517 28.75998 3538 ft 184 kts 354°
2026-05-07 17:36 41.10781 28.75974 3337 ft 179 kts 354°
2026-05-07 17:36 41.12038 28.75947 3095 ft 183 kts 354°
2026-05-07 17:36 41.13315 28.75922 2853 ft 183 kts 354°
2026-05-07 17:37 41.14582 28.75897 2622 ft 178 kts 354°
2026-05-07 17:37 41.15792 28.75877 2361 ft 171 kts 354°
2026-05-07 17:37 41.16972 28.75854 2152 ft 171 kts 354°
2026-05-07 17:37 41.18171 28.75824 1927 ft 172 kts 355°
2026-05-07 17:38 41.19367 28.75800 1699 ft 171 kts 356°
2026-05-07 17:38 41.20546 28.75779 1460 ft 166 kts 356°
2026-05-07 17:38 41.21663 28.75757 1223 ft 160 kts 356°
2026-05-07 17:38 41.22772 28.75730 1012 ft 158 kts 357°
2026-05-07 17:39 41.23850 28.75713 791 ft 153 kts 357°
2026-05-07 17:39 41.24899 28.75693 623 ft 151 kts 358°
2026-05-07 17:39 41.25954 28.75681 429 ft 152 kts 357°
2026-05-07 17:39 41.27008 28.75660 338 ft 146 kts 357°
2026-05-07 17:40 41.27779 28.75639 336 ft 72 kts 359°
2026-05-07 17:40 41.28075 28.75546 334 ft 37 kts 328°
2026-05-07 17:40 41.28153 28.75452 335 ft 0 kts 292°
2026-05-07 17:42 41.28154 28.75449 334 ft 4 kts 292°
2026-05-07 17:42 41.28098 28.75357 335 ft 23 kts 192°
2026-05-07 17:42 41.27865 28.75353 334 ft 39 kts 179°
2026-05-07 17:42 41.27597 28.75359 337 ft 37 kts 179°
2026-05-07 17:43 41.27346 28.75365 337 ft 35 kts 179°
2026-05-07 17:43 41.27123 28.75365 334 ft 21 kts 195°
2026-05-07 17:43 41.27071 28.75199 335 ft 21 kts 266°
2026-05-07 17:43 41.27068 28.75008 339 ft 21 kts 269°
2026-05-07 17:44 41.27065 28.74816 336 ft 21 kts 269°
2026-05-07 17:44 41.27045 28.74636 334 ft 18 kts 227°
2026-05-07 17:44 41.26894 28.74609 337 ft 28 kts 178°
2026-05-07 17:44 41.26725 28.74645 338 ft 19 kts 125°
2026-05-07 17:45 41.26715 28.74723 338 ft 5 kts 91°
2026-05-07 17:45 41.26715 28.74725 336 ft 0 kts 91°